[[{"header":{"parameterUnit":"m.s-1","parameterCategory":1,"la1":30.2991,"la2":30.254,"lo1":-89.0895,"lo2":-89.0444,"dy":0.0017,"dx":0.0017,"nx":28,"ny":28,"refTime":"2024-03-22T09:00:00:Z","depth":0,"parameterNumber":2,"parameterNumberName":"U-component_of_WINDS"},"data":[0,0,0,0,0,0,0,0,0,0,0,0,0,0,0,0,0,0,0,0,0,0,0,0,0,0,0,0,0,0,0,0,0,0,0,0,0,0,0,0,0,0,0,0,0,0,0,0,0,0,0,0,0,0,0,0,0,0,1.9305,1.9305,0,1.9313,1.9313,1.9313,1.9243,1.9241,1.9239,1.9237,1.9249,1.9251,1.9253,0,0,0,0,0,0,0,0,0,0,0,0,0,1.9235,1.9237,1.9305,1.9305,1.9305,1.9313,1.9313,1.9313,1.9243,1.9241,1.9238,1.9236,1.9248,1.9251,1.9253,0,0,0,0,0,0,0,0,0,0,0,0,0,1.9257,1.9237,1.9305,1.9271,1.9268,1.9313,1.9313,1.9313,1.9244,1.9241,1.9238,1.9235,1.9247,1.9251,1.9254,1.9333,0,0,1.9264,1.9265,0,0,0,0,0,0,0,0,1.9256,1.9259,1.9276,1.9273,1.927,1.9274,1.9293,1.932,1.9244,1.9253,1.9237,1.9234,1.926,1.9262,1.927,1.9333,1.9334,1.9264,1.9266,1.9267,1.9268,0,0,0,0,0,0,0,1.9254,1.9259,1.9308,1.9276,1.9273,1.9258,1.9257,1.9298,1.9273,1.9252,1.9247,1.9249,1.9258,1.9267,1.927,1.9334,1.9264,1.9267,1.9269,1.927,1.9467,1.947,0,0,0,0,0,0,1.9257,1.9258,1.9308,1.9308,1.9255,1.9261,1.9261,1.9276,1.9272,1.9269,1.9251,1.9245,1.9263,1.9266,1.927,1.9364,1.9267,1.927,1.9272,1.9463,1.9467,1.9471,0,0,0,0,0,0,1.9255,1.9262,1.9308,1.9282,1.9286,1.9265,1.9283,1.9277,1.9286,1.9272,1.9267,1.9265,1.9261,1.9265,1.9318,1.9363,1.9272,1.9275,1.9459,1.9465,1.9469,1.9552,0,0,0,0,0,0,1.9254,1.9262,1.9289,1.9283,1.9288,1.9354,1.9285,1.928,1.9292,1.9284,1.9283,1.928,1.9259,1.9314,1.9322,1.9366,1.9277,1.9455,1.9462,1.9468,1.9545,1.9559,1.9571,0,0,0,0,0,1.9251,1.9312,1.9291,1.9298,1.9322,1.9356,1.936,1.9333,1.9296,1.9325,1.9316,1.928,1.9358,1.932,1.9328,1.9374,1.9452,1.946,1.9467,1.9539,1.9556,1.9571,0,0,0,0,0,0,1.9325,1.9311,1.9287,1.9347,1.9354,1.9344,1.938,1.9351,1.9369,1.9361,1.9328,1.9329,1.9388,1.9386,1.9345,1.9453,1.9399,1.9408,1.9451,1.9467,1.948,1.9479,1.928,0,0,0,0,0,1.9348,1.9376,1.9362,1.9417,1.9422,1.9401,1.9415,1.9394,1.9399,1.9402,1.9397,1.9405,1.9431,1.9449,1.9472,1.9545,1.9546,1.9582,1.9595,1.9605,1.9614,1.9655,1.9672,1.9495,1.9495,1.9495,0,0,1.9396,1.9392,1.9411,1.9432,1.9434,1.9466,1.9403,1.9438,1.9462,1.9407,1.9457,1.9454,1.9462,1.9526,1.9554,1.9526,1.9663,1.9615,1.9624,1.9626,1.9665,1.9682,1.9696,1.95,1.9499,1.9499,0,0,1.95,1.9499,1.9545,1.955,1.9554,1.9541,1.9553,1.9549,1.9545,1.9594,1.9555,1.9584,1.9629,1.9637,1.9647,1.9759,1.9728,1.9768,1.9836,1.9877,1.9891,1.9903,1.9945,1.996,1.9777,1.9777,1.9777,0,1.9559,1.9603,1.9573,1.9612,1.9623,1.9576,1.9625,1.9631,1.9644,1.9654,1.9623,1.9682,1.9683,1.975,1.9778,1.9787,1.9801,1.9767,1.9891,1.9903,1.9914,1.9953,1.9969,1.9782,1.9781,1.9781,1.978,0,1.9677,1.9709,1.9746,1.976,1.9776,1.9819,1.9799,1.9819,1.9798,1.9789,1.9843,1.9843,1.9867,1.9882,1.9861,1.9947,1.993,1.9896,1.9841,1.9936,1.9973,1.9988,1.9789,1.9787,1.9786,1.9784,0,0,1.9824,1.9823,1.9837,1.9844,1.9848,1.9873,1.9917,1.994,1.9959,1.9971,2.0008,2.005,2.0019,2.0031,2.0012,2.0048,2.014,2.0009,2.0009,2.0034,2.0237,2.0263,2.0281,2.012,2.0123,2.0125,2.0237,0,1.9926,1.9997,1.9974,2.0048,2.0079,2.0037,2.0075,2.0083,2.0077,2.0104,2.0098,2.0129,2.0085,2.0092,2.0126,2.0121,2.018,2.0113,2.0156,2.0158,2.0155,2.0299,2.0326,2.0431,2.0251,2.0253,2.0255,0,2.0053,2.007,2.0147,2.0149,2.0161,2.0196,2.0217,2.0243,2.0253,2.0246,2.0262,2.0236,2.0282,2.0229,2.0293,2.0248,2.0265,2.0266,2.0269,2.0272,2.0212,2.0307,2.0464,2.048,2.0277,2.0275,2.0274,0,2.0154,2.0197,2.0249,2.0256,2.0259,2.0285,2.0288,2.0295,2.0312,2.0332,2.0343,2.0369,2.0383,2.0404,2.0388,2.035,2.0456,2.04,2.0454,2.0455,2.0477,2.0475,2.064,2.0488,2.0488,2.0488,2.0487,0,2.027,2.0319,2.0294,2.0326,2.0382,2.0356,2.0412,2.0411,2.0419,2.0452,2.0418,2.0451,2.0427,2.0459,2.0447,2.0503,2.051,2.0508,2.0504,2.051,2.0511,2.052,2.0513,2.0492,2.0491,2.049,2.0489,0,2.0391,2.0376,2.043,2.043,2.0432,2.0473,2.0473,2.0505,2.0498,2.0541,2.055,2.0539,2.0575,2.0561,2.0599,2.0591,2.0664,2.0651,2.066,2.0657,2.0712,2.0707,2.0887,2.0911,2.0744,2.0746,2.0747,0,2.0465,2.0502,2.0506,2.0526,2.0531,2.0563,2.058,2.0559,2.0579,2.0596,2.0626,2.0659,2.0684,2.0744,2.0741,2.0771,2.0758,2.082,2.0763,2.0769,2.0761,2.0759,2.0763,2.0831,2.0833,2.0834,2.0836,0,2.0599,2.0591,2.0616,2.0641,2.0663,2.0682,2.0697,2.0716,2.0696,2.0721,2.0757,2.0776,2.0817,2.0851,2.0878,2.0884,2.0858,2.0854,2.0868,2.0875,2.088,2.0879,2.0692,2.085,2.0848,2.0847,2.0847,2.0846,2.0699,2.0731,2.074,2.0771,2.0781,2.0798,2.0828,2.0826,2.0855,2.0885,2.0872,2.0915,2.0928,2.0963,2.0973,2.1008,2.0984,2.1004,2.101,2.1015,2.1022,2.0875,2.1013,2.1013,2.1012,2.1012,2.1012,0,2.0832,2.0837,2.0866,2.0889,2.0915,2.0888,2.0906,2.0929,2.0967,2.0981,2.1007,2.1051,2.1085,2.1087,2.1119,2.1147,2.1137,2.1157,2.1154,2.1157,2.1041,2.1026,2.1165,2.1165,2.1165,2.1165,2.1165,2.1165,2.0904,2.0958,2.0952,2.1012,2.1017,2.1057,2.107,2.1087,2.1098,2.1148,2.1176,2.1177,2.1188,2.1222,2.1253,2.1253,2.1267,2.1292,2.1288,2.118,2.1164,2.115,2.1135,2.1295,2.1296,2.1401,2.1402,2.1402]},{"header":{"parameterUnit":"m.s-1","parameterCategory":1,"la1":30.2991,"la2":30.254,"lo1":-89.0895,"lo2":-89.0444,"dy":0.0017,"dx":0.0017,"nx":28,"ny":28,"refTime":"2024-03-22T09:00:00:Z","depth":0,"parameterNumber":3,"parameterNumberName":"V-component_of_WINDS"},"data":[0,0,0,0,0,0,0,0,0,0,0,0,0,0,0,0,0,0,0,0,0,0,0,0,0,0,0,0,0,0,0,0,0,0,0,0,0,0,0,0,0,0,0,0,0,0,0,0,0,0,0,0,0,0,0,0,0,0,1.7937,1.7937,0,1.7994,1.7995,1.7995,1.8016,1.8016,1.8016,1.8015,1.807,1.8071,1.8073,0,0,0,0,0,0,0,0,0,0,0,0,0,1.7841,1.7842,1.7937,1.7937,1.7938,1.7994,1.7995,1.7996,1.8016,1.8016,1.8016,1.8015,1.8069,1.8071,1.8073,0,0,0,0,0,0,0,0,0,0,0,0,0,1.7888,1.7843,1.7936,1.7955,1.7957,1.7994,1.7995,1.7996,1.8016,1.8016,1.8016,1.8015,1.8069,1.8071,1.8073,1.8094,0,0,1.8081,1.8082,0,0,0,0,0,0,0,0,1.7886,1.7892,1.7952,1.7954,1.7956,1.7998,1.7981,1.8029,1.8016,1.7994,1.8015,1.8015,1.8046,1.805,1.8061,1.8097,1.8099,1.8081,1.8082,1.8083,1.8084,0,0,0,0,0,0,0,1.7882,1.789,1.7959,1.7952,1.7955,1.7959,1.7966,1.799,1.802,1.7996,1.7997,1.8004,1.8047,1.8059,1.8063,1.81,1.8081,1.8083,1.8085,1.8085,1.8156,1.8156,0,0,0,0,0,0,1.7877,1.7887,1.7957,1.7961,1.792,1.7961,1.7969,1.7985,1.802,1.8025,1.8004,1.8005,1.8055,1.806,1.8065,1.8092,1.8083,1.8086,1.8087,1.8156,1.8156,1.8157,0,0,0,0,0,0,1.7874,1.7883,1.7955,1.7924,1.7934,1.7963,1.7981,1.7986,1.7998,1.8027,1.8032,1.8011,1.8055,1.8061,1.8087,1.8094,1.8087,1.8089,1.8155,1.8156,1.8156,1.8147,0,0,0,0,0,0,1.7872,1.7882,1.7891,1.7925,1.7936,1.7978,1.7982,1.7987,1.8003,1.8004,1.8035,1.8039,1.8055,1.8083,1.809,1.8098,1.8091,1.8155,1.8155,1.8156,1.8147,1.8147,1.8148,0,0,0,0,0,1.7868,1.7885,1.7891,1.79,1.7948,1.7978,1.7984,1.8003,1.8003,1.8012,1.8031,1.8038,1.8093,1.8086,1.8093,1.8102,1.8154,1.8155,1.8156,1.8147,1.8147,1.8148,0,0,0,0,0,0,1.7849,1.7889,1.7897,1.7925,1.7948,1.7982,1.7993,1.8003,1.8025,1.8026,1.8047,1.8053,1.8078,1.8092,1.8084,1.8124,1.8124,1.8126,1.8114,1.8115,1.8115,1.8112,1.8093,0,0,0,0,0,1.7848,1.7871,1.7905,1.7926,1.7938,1.7964,1.7977,1.799,1.8015,1.8024,1.8044,1.8066,1.8088,1.8102,1.8124,1.8149,1.8156,1.8159,1.8159,1.8159,1.8161,1.8176,1.8178,1.816,1.816,1.816,0,0,1.7847,1.7872,1.7884,1.7923,1.7943,1.7965,1.7972,1.7994,1.8011,1.8027,1.8054,1.8069,1.8095,1.8121,1.8133,1.8134,1.8168,1.816,1.816,1.8162,1.8177,1.8179,1.818,1.816,1.816,1.816,0,0,1.7855,1.7876,1.7898,1.7917,1.7948,1.7965,1.797,1.8002,1.8014,1.8041,1.8054,1.8073,1.811,1.8129,1.8143,1.816,1.8168,1.8166,1.8168,1.8183,1.8184,1.8186,1.8192,1.8194,1.8168,1.8168,1.8168,0,1.7849,1.7885,1.7906,1.793,1.7946,1.7964,1.7985,1.8002,1.8037,1.8048,1.8048,1.8097,1.8115,1.8146,1.815,1.8161,1.8167,1.8163,1.8183,1.8184,1.8186,1.8192,1.8195,1.8168,1.8168,1.8168,1.8168,0,1.7876,1.79,1.7913,1.7949,1.7967,1.7989,1.8013,1.8028,1.804,1.8057,1.8085,1.8108,1.8135,1.8143,1.8153,1.8176,1.8175,1.8179,1.8179,1.8187,1.8193,1.8196,1.8167,1.8167,1.8167,1.8167,0,0,1.7874,1.7923,1.7927,1.7944,1.7979,1.7998,1.802,1.8049,1.8062,1.8085,1.8104,1.8136,1.814,1.8156,1.8169,1.8182,1.8195,1.8184,1.8185,1.8186,1.8221,1.8219,1.8221,1.82,1.8201,1.8201,1.8219,0,1.7887,1.793,1.7951,1.7984,1.8007,1.8025,1.8044,1.8067,1.8084,1.8105,1.8122,1.8145,1.8148,1.8158,1.8172,1.819,1.8202,1.8189,1.8218,1.8218,1.8211,1.8225,1.8222,1.8238,1.8222,1.8222,1.8223,0,1.7909,1.7935,1.7971,1.8005,1.8016,1.8033,1.8061,1.8081,1.8108,1.8119,1.8138,1.815,1.8174,1.8172,1.8205,1.8195,1.8208,1.8219,1.822,1.8224,1.8221,1.8229,1.8244,1.8246,1.8227,1.8226,1.8226,0,1.7905,1.7949,1.7976,1.799,1.803,1.8042,1.8059,1.8085,1.8101,1.8125,1.8136,1.8162,1.8176,1.8196,1.8215,1.8211,1.8246,1.8245,1.8255,1.8255,1.8262,1.8261,1.8279,1.8269,1.8269,1.8269,1.8269,0,1.7919,1.794,1.7975,1.7992,1.8017,1.804,1.8064,1.8081,1.8105,1.8125,1.8141,1.8159,1.8183,1.8204,1.8219,1.8244,1.8249,1.8259,1.8263,1.8258,1.8257,1.8267,1.8266,1.8269,1.8269,1.8269,1.8269,0,1.7918,1.7942,1.7974,1.801,1.8019,1.8036,1.8066,1.8083,1.8101,1.8126,1.8133,1.816,1.8186,1.8207,1.824,1.825,1.8277,1.828,1.8268,1.827,1.828,1.8279,1.8305,1.831,1.8296,1.8296,1.8296,0,1.7925,1.7943,1.7981,1.7997,1.8014,1.8039,1.8056,1.8079,1.8096,1.8129,1.8141,1.8169,1.8192,1.8232,1.8254,1.8279,1.8284,1.8292,1.8288,1.8283,1.8285,1.8285,1.8287,1.8292,1.8292,1.8292,1.8292,0,1.7936,1.7948,1.7973,1.8003,1.8024,1.8048,1.8072,1.8084,1.8111,1.813,1.8157,1.8176,1.8211,1.8237,1.8266,1.8281,1.8291,1.8293,1.8297,1.8293,1.8285,1.829,1.827,1.8293,1.8293,1.8293,1.8293,1.8293,1.794,1.7957,1.7987,1.8015,1.8036,1.8059,1.8077,1.8098,1.8122,1.8154,1.8166,1.8194,1.822,1.826,1.8276,1.8298,1.8299,1.8304,1.8305,1.8307,1.8306,1.8282,1.8303,1.8303,1.8303,1.8303,1.8303,0,1.7952,1.7973,1.7999,1.8034,1.8056,1.8065,1.8093,1.811,1.8135,1.816,1.8183,1.8215,1.8242,1.8266,1.8294,1.8306,1.8312,1.8313,1.8312,1.8316,1.8303,1.8298,1.8308,1.8308,1.8308,1.8308,1.8308,1.8308,1.7961,1.7991,1.8006,1.8046,1.8066,1.8096,1.8111,1.8132,1.8152,1.8188,1.8211,1.8227,1.8252,1.8281,1.8306,1.8312,1.8322,1.8322,1.833,1.8318,1.8317,1.8316,1.8311,1.8324,1.8324,1.8341,1.8341,1.8341]}]]